FLOCK 4V-20

Last updated on Mon Nov 09 2020 00:02:03 GMT+0000 (Coordinated Universal Time)

1 46612U 20061BJ 20312.79544501 .00000631 00000-0 37519-4 0 9990 2 46612 97.4674 24.7124 0008488 22.0432 338.1163 15.14767974 3974

Satellite not in orbit

FLOCK 4V-20